ROMMA est une association bénévole à but non lucratif. Votre soutien est indispensable : ADHERER à ROMMA ou FAIRE un DON

Tourrette-Levens - (06, Alpes-Maritimes)

Côte-d'Azur (416 m)   Longitude: 07° 16' 12" E   Latitude: 43° 47' 24" N Station partenaire n°152
 

Détail journalier du     <<     >>

Température Precipitation Humidité Pression Vent Dir Rafale Dir. rafale Ensol.
Heure (°C) (mm) (%) (hPa) (km/h) (km/h) (min)
01:00 11.206310181S10O0
02:00 11.206010171OSO6N0
03:00 11.705710171NE6ONO0
04:00 11.705210171NNE5NE0
05:00 12.205310171NNE8S0
06:00 13.704710173NO15O0
07:00 13.105510171NNE8NNO0
08:00 13.2055101805SO0
09:00 16.105010181NE13ONO0
10:00 19.604110184NE10NE44
11:00 20.903510186NE16ENE50
12:00 19.904510184SE16SSE32
13:00 22.203910185ESE16ESE49
14:00 22.303410186ESE21SSE44
15:00 21.203410185ESE19SSE56
16:00 19.204410197SE19ESE19
17:00 19.604110197E21S55
18:00 18.204910195S21SSE15
19:00 17.206110196SSO16S0
20:00 14.807110203O13S0
21:00 13.307510212NE13ENE0
22:00 12.107810211ONO8S0
23:00 11.707810212ONO6ONO0
minuit 11.2080102105SO0

Graphique du 13-05-2019

 

Serveur OMMA